Home > Time Zones > World Clock > Weather > U.S.A. > Yuma > Past weeks

Flag for U.S.A. Weather past 2 weeks in Yuma, Arizona, U.S.A.

Now
94 °F

Clear.


Feels Like: 93 °F
Forecast: 79 / 104 °F
Wind: 9 mph from Southwest

Location: Yuma Marine Corps Air Station

Current Time: Sep 22, 2014 at 8:18:54 PM

Latest Report: Sep 22, 2014 at 7:57 PM


Visibility: 10 mi

Pressure: 29.82 "Hg

Humidity: 30%

Dew point: 58 °F

Location of YumaLocation

Historic Weather in Yuma — Graph

°F

Yuma temperature yesterday

Maximum temperature yesterday: 101 °F (at 1:57 PM)
Minimum temperature yesterday: 80 °F (at 6:57 AM)
Average temperature yesterday: 90 °F

Past Weeks' High & Low Weather Summary

 TemperatureHumidityPressure
High110 °F (Sep 15, 4:57 PM)82% (Sep 9, 11:57 AM)29.91 "Hg (Sep 9, 11:57 AM)
Low76 °F (Sep 9, 11:57 AM)11% (Sep 12, 3:57 PM)29.60 "Hg (Sep 18, 4:57 PM)
Average93 °F38%29.74 "Hg
* Reported Sep 7 6:57 PM — Sep 22 6:57 PM, Yuma, Weather by CustomWeather, © 2014

Note: Actual official high and low records may vary slightly from our data, if they occured in-between our weather recording intervals... More about our weather records

Advertising

Yuma weather history for previous 24 hours

 ConditionsComfort  
Time TempWeatherWind HumidityBarometerVisibility
6:57 PM
Sep 22
97 °FClear.10 mph24%29.80 "Hg10 mi
5:57 PM101 °FSunny.6 mph15%29.78 "Hg10 mi
4:57 PM102 °FSunny.6 mph14%29.79 "Hg10 mi
3:57 PM102 °FPassing clouds.10 mph14%29.80 "Hg10 mi
2:57 PM102 °FPassing clouds.5 mph14%29.83 "Hg10 mi
1:57 PM102 °FPassing clouds.9 mph14%29.85 "Hg10 mi
12:57 PM100 °FSunny.No wind16%29.87 "Hg10 mi
11:57 AM98 °FPassing clouds.7 mph17%29.89 "Hg10 mi
10:57 AM95 °FPassing clouds.6 mph19%29.90 "Hg10 mi
9:57 AM93 °FPassing clouds.3 mph22%29.91 "Hg10 mi
8:57 AM88 °FPassing clouds.3 mph28%29.90 "Hg7 mi
7:57 AM81 °FPassing clouds.6 mph38%29.89 "Hg10 mi
6:57 AM78 °FPassing clouds.3 mph45%29.87 "Hg10 mi
5:57 AM78 °FClear.3 mph45%29.86 "Hg10 mi
4:57 AM78 °FClear.5 mph45%29.85 "Hg10 mi
3:57 AM80 °FClear.3 mph44%29.84 "Hg10 mi
2:57 AM83 °FClear.3 mph36%29.83 "Hg10 mi
1:57 AM83 °FClear.6 mph40%29.84 "Hg10 mi
12:57 AM82 °FClear.5 mph48%29.84 "Hg10 mi
11:57 PM
Sep 21
82 °FClear.7 mph46%29.84 "Hg10 mi
10:57 PM83 °FClear.8 mph34%29.84 "Hg10 mi
9:57 PM86 °FClear.5 mph28%29.83 "Hg10 mi
8:57 PM90 °FClear.13 mph25%29.81 "Hg10 mi
Weather by CustomWeather, © 2014

See weather overviewHow to use our weather pages